ATLAS 5 CENTAUR DEB, 43972

Orbit data source: Space-Track

ATLAS 5 CENTAUR DEB, 43972 is space debris in HEO originally from a launch on Wed, 17 Sep 2014 UTC launched from the Air Force Eastern Test Range (AFETR). Debris objects in space refer to the collection of defunct objects orbiting the Earth. Examples of debris include non-operational satellites, rocket bodies, and fragments generated from explosions, collisions, or faulty payload assembly.

Loading next visibility...
Identifier
43972, 2014-055AB
Orbit
HEO
Country
Flag of USUS
Related business
Flag of USUnited Launch Alliance/Lockheed Martin (US)
Manufacturer
Unknown
Mission
Spacecraft
Bus & Motor
Unknown
Mass
Unknown
Launch date (UTC)
2014-09-17 (12 years ago)
Launch vehicle
Unknown
Launch site
Air Force Eastern Test Range (AFETR)
Object type
Payload
Rocket body
Debris
Shape & HBR
Unknown shape, 1.1 m
Radar Cross Section
Medium (>0.1 m² and <1 m²)

Expand to show TLE details & history
Last TLE update: 13 hours ago

TLE from 13 hours ago
0 ATLAS 5 CENTAUR DEB
1 43972U 14055AB  26100.93030029 -.00000011  00000-0  00000-0 0  9998
2 43972  19.9698 149.9606 4786690 152.7609 243.5917  1.85389903 51478
Epoch: 2026-04-10T22:19Z
TLE epoch observation values (Epoch: 2026-04-10T22:19:37.945Z)
Latitude
-0°
Longitude
-24.06398°
Altitude
31,177.226 km
Speed
2.643 km/s
True Right ascension
10h 00m 00s
True Declination
0° 00' 00"
Sunlit
Object was in daylight at epoch
Visualization orbit readout
Latitude
Unknown
Longitude
Unknown
Altitude
Unknown
Speed
Unknown
Apparent Right ascension
Unknown
Apparent Declination
Unknown
Sunlit
N/A
Visualization observer readout
Local Sidereal Time
17:43:02
Azimuth
Unknown
Elevation
Unknown
Doppler factor
Unknown
Orbital elements
Apogee altitude
35,013.454 km
Perigee altitude
8,215.203 km
Semi-major axis
27,992.465 km
Eccentricity
0.47867
Inclination
19.9698°
RAAN
149.9606°
Arg. of periapsis
152.7609°
True anomaly
207.24357°
Mean anomaly
243.5917°
Eccentric anomaly
224.40219°
Mean motion
0.46343 °/min
Orbital period
776.82 mins
BSTAR
0
Loading maneuver chart data...
Computing Atmospheric mass density...

Documentation

Showing up to 5 results
|